Location: M?digepalle
(16.1753°N, 80.3496°E)
Time: 09:06:30
(UTC+00:00)

Nadezhda 4 Rocket - Pass Details

Date: 29 October 2020
Orbit: 951 x 991 km, 82.9° (Epoch: 27 November)

Event Time Altitude Azimuth Distance (km) Brightness Sun altitude
Rises 22:22:30 0° 182° (S) 3,615 7.0 -32.2°
Reaches altitude 10° 22:24:59 10° 182° (S) 2,669 6.3 -31.6°
Enters shadow 22:29:07 46° 180° (S) 1,248 4.5 -30.6°
Exits shadow 22:32:50 50° 7° (N) 1,197 4.4 -29.7°
Drops below altitude 10° 22:37:12 10° 5° (N) 2,673 6.3 -28.6°
Sets 22:39:41 0° 5° (N) 3,622 7.0 -28.1°
